Time,TemperatureF,DewpointF,PressureIn,WindDirection,WindDirectionDegrees,WindSpeedMPH,WindSpeedGustMPH,Humidity,HourlyPrecipIn,Conditions,Clouds,dailyrainin,SoftwareType,DateUTC
2013-03-01 00:02:00,32.0,26.0,-100.00,WNW,285,2.0,3.0,81,-99.99,,,-99.99,,2013-03-01 05:02:00,
2013-03-01 00:11:00,32.0,27.0,-100.00,WNW,295,2.0,4.0,82,-99.99,,,-99.99,,2013-03-01 05:11:00,
2013-03-01 00:22:00,32.0,27.0,-100.00,WNW,295,2.0,4.0,82,-99.99,,,-99.99,,2013-03-01 05:22:00,
2013-03-01 00:33:00,31.0,27.0,-100.00,WNW,285,1.0,3.0,83,-99.99,,,-99.99,,2013-03-01 05:33:00,
2013-03-01 00:42:00,32.0,27.0,-100.00,WNW,290,1.0,3.0,84,-99.99,,,-99.99,,2013-03-01 05:42:00,
2013-03-01 00:52:00,32.0,27.0,-100.00,WNW,290,1.0,3.0,84,-99.99,,,-99.99,,2013-03-01 05:52:00,
2013-03-01 01:02:00,31.0,27.0,-100.00,WNW,295,1.0,4.0,84,-99.99,,,-99.99,,2013-03-01 06:02:00,
2013-03-01 01:12:00,31.0,27.0,-100.00,West,280,1.0,4.0,85,-99.99,,,-99.99,,2013-03-01 06:12:00,
2013-03-01 01:22:00,31.0,27.0,-100.00,West,280,1.0,4.0,85,-99.99,,,-99.99,,2013-03-01 06:22:00,
2013-03-01 01:32:00,31.0,27.0,-100.00,WNW,300,4.0,5.0,85,-99.99,,,-99.99,,2013-03-01 06:32:00,
2013-03-01 01:42:00,30.0,26.0,-100.00,NW,305,2.0,4.0,86,-99.99,,,-99.99,,2013-03-01 06:42:00,
2013-03-01 01:52:00,29.0,26.0,-100.00,WNW,300,2.0,4.0,86,-99.99,,,-99.99,,2013-03-01 06:52:00,
2013-03-01 02:02:00,29.0,26.0,-100.00,WNW,300,2.0,4.0,86,-99.99,,,-99.99,,2013-03-01 07:02:00,
2013-03-01 02:12:00,30.0,26.0,-100.00,WSW,250,2.0,4.0,86,-99.99,,,-99.99,,2013-03-01 07:12:00,
2013-03-01 02:22:00,30.0,26.0,-100.00,WSW,250,2.0,4.0,86,-99.99,,,-99.99,,2013-03-01 07:22:00,
2013-03-01 02:32:00,30.0,26.0,-100.00,NW,305,2.0,4.0,87,-99.99,,,-99.99,,2013-03-01 07:32:00,
2013-03-01 02:42:00,30.0,27.0,-100.00,West,280,3.0,6.0,87,-99.99,,,-99.99,,2013-03-01 07:42:00,
2013-03-01 02:52:00,30.0,27.0,-100.00,West,280,3.0,6.0,87,-99.99,,,-99.99,,2013-03-01 07:52:00,
2013-03-01 03:02:00,30.0,27.0,-100.00,NNW,330,3.0,10.0,87,-99.99,,,-99.99,,2013-03-01 08:02:00,
2013-03-01 03:12:00,30.0,27.0,-100.00,WNW,300,2.0,4.0,87,-99.99,,,-99.99,,2013-03-01 08:12:00,
2013-03-01 03:22:00,30.0,27.0,-100.00,WNW,300,2.0,4.0,87,-99.99,,,-99.99,,2013-03-01 08:22:00,
2013-03-01 03:32:00,30.0,27.0,-100.00,WNW,290,2.0,8.0,87,-99.99,,,-99.99,,2013-03-01 08:32:00,
2013-03-01 03:43:00,30.0,27.0,-100.00,WNW,300,3.0,6.0,87,-99.99,,,-99.99,,2013-03-01 08:43:00,
2013-03-01 03:53:00,30.0,27.0,-100.00,WNW,300,3.0,6.0,87,-99.99,,,-99.99,,2013-03-01 08:53:00,
2013-03-01 04:02:00,31.0,27.0,-100.00,WNW,295,3.0,8.0,86,-99.99,,,-99.99,,2013-03-01 09:02:00,
2013-03-01 04:12:00,31.0,27.0,-100.00,WNW,295,1.0,7.0,85,-99.99,,,-99.99,,2013-03-01 09:12:00,
2013-03-01 04:22:00,31.0,27.0,-100.00,WNW,295,1.0,7.0,85,-99.99,,,-99.99,,2013-03-01 09:22:00,
2013-03-01 04:32:00,31.0,27.0,-100.00,WNW,285,3.0,8.0,84,-99.99,,,-99.99,,2013-03-01 09:32:00,
2013-03-01 04:42:00,31.0,26.0,-100.00,WNW,285,3.0,6.0,82,-99.99,,,-99.99,,2013-03-01 09:42:00,
2013-03-01 04:52:00,31.0,26.0,-100.00,WNW,285,3.0,6.0,82,-99.99,,,-99.99,,2013-03-01 09:52:00,
2013-03-01 05:02:00,31.0,26.0,-100.00,WNW,295,4.0,8.0,80,-99.99,,,-99.99,,2013-03-01 10:02:00,
2013-03-01 05:12:00,31.0,26.0,-100.00,WNW,295,4.0,8.0,79,-99.99,,,-99.99,,2013-03-01 10:12:00,
2013-03-01 05:22:00,31.0,26.0,-100.00,WNW,295,4.0,8.0,79,-99.99,,,-99.99,,2013-03-01 10:22:00,
2013-03-01 05:32:00,31.0,25.0,-100.00,NNW,330,3.0,7.0,79,-99.99,,,-99.99,,2013-03-01 10:32:00,
2013-03-01 05:42:00,32.0,26.0,-100.00,WNW,300,3.0,9.0,79,-99.99,,,-99.99,,2013-03-01 10:42:00,
2013-03-01 05:52:00,32.0,26.0,-100.00,WNW,300,3.0,9.0,79,-99.99,,,-99.99,,2013-03-01 10:52:00,
2013-03-01 06:02:00,32.0,26.0,-100.00,NW,310,2.0,5.0,78,-99.99,,,-99.99,,2013-03-01 11:02:00,
2013-03-01 06:12:00,32.0,26.0,-100.00,NNW,335,2.0,3.0,77,-99.99,,,-99.99,,2013-03-01 11:12:00,
2013-03-01 06:23:00,32.0,26.0,-100.00,NNW,335,2.0,3.0,77,-99.99,,,-99.99,,2013-03-01 11:23:00,
2013-03-01 06:32:00,33.0,26.0,-100.00,WNW,300,2.0,4.0,77,-99.99,,,-99.99,,2013-03-01 11:32:00,
2013-03-01 06:42:00,33.0,26.0,-100.00,WNW,300,2.0,4.0,77,-99.99,,,-99.99,,2013-03-01 11:42:00,
2013-03-01 07:02:00,32.0,26.0,-100.00,NW,305,1.0,6.0,76,-99.99,,,-99.99,,2013-03-01 12:02:00,
2013-03-01 07:11:00,32.0,25.0,-100.00,North,0,3.0,11.0,76,-99.99,,,-99.99,,2013-03-01 12:11:00,
2013-03-01 07:22:00,32.0,25.0,-100.00,North,0,3.0,11.0,76,-99.99,,,-99.99,,2013-03-01 12:22:00,
2013-03-01 07:32:00,33.0,25.0,-100.00,NW,315,4.0,12.0,72,-99.99,,,-99.99,,2013-03-01 12:32:00,
2013-03-01 07:42:00,33.0,24.0,-100.00,North,0,5.0,11.0,71,-99.99,,,-99.99,,2013-03-01 12:42:00,
2013-03-01 07:52:00,33.0,24.0,-100.00,North,0,5.0,11.0,71,-99.99,,,-99.99,,2013-03-01 12:52:00,
2013-03-01 08:01:00,33.0,24.0,-100.00,NW,315,4.0,14.0,69,-99.99,,,-99.99,,2013-03-01 13:01:00,
2013-03-01 08:12:00,33.0,24.0,-100.00,WNW,285,5.0,11.0,68,-99.99,,,-99.99,,2013-03-01 13:12:00,
2013-03-01 08:22:00,33.0,24.0,-100.00,WNW,285,5.0,11.0,68,-99.99,,,-99.99,,2013-03-01 13:22:00,
2013-03-01 08:42:00,34.0,23.0,-100.00,WNW,285,4.0,9.0,65,-99.99,,,-99.99,,2013-03-01 13:42:00,
2013-03-01 08:52:00,34.0,23.0,-100.00,WNW,285,4.0,9.0,65,-99.99,,,-99.99,,2013-03-01 13:52:00,
2013-03-01 09:02:00,34.0,23.0,-100.00,WNW,295,5.0,11.0,64,-99.99,,,-99.99,,2013-03-01 14:02:00,
2013-03-01 09:12:00,34.0,23.0,-100.00,WNW,295,5.0,10.0,63,-99.99,,,-99.99,,2013-03-01 14:12:00,
2013-03-01 09:22:00,34.0,23.0,-100.00,WNW,295,5.0,10.0,63,-99.99,,,-99.99,,2013-03-01 14:22:00,
2013-03-01 09:32:00,35.0,23.0,-100.00,NW,305,3.0,10.0,62,-99.99,,,-99.99,,2013-03-01 14:32:00,
2013-03-01 09:42:00,35.0,23.0,-100.00,NNW,330,6.0,13.0,60,-99.99,,,-99.99,,2013-03-01 14:42:00,
2013-03-01 09:52:00,35.0,23.0,-100.00,NNW,330,6.0,13.0,60,-99.99,,,-99.99,,2013-03-01 14:52:00,
2013-03-01 10:02:00,37.0,24.0,-100.00,NW,320,4.0,11.0,58,-99.99,,,-99.99,,2013-03-01 15:02:00,
2013-03-01 10:11:00,37.0,24.0,-100.00,NW,320,4.0,11.0,58,-99.99,,,-99.99,,2013-03-01 15:11:00,
2013-03-01 10:32:00,37.0,21.0,-100.00,NW,305,5.0,12.0,53,-99.99,,,-99.99,,2013-03-01 15:32:00,
2013-03-01 10:42:00,37.0,21.0,-100.00,NNE,15,4.0,9.0,52,-99.99,,,-99.99,,2013-03-01 15:42:00,
2013-03-01 10:52:00,37.0,21.0,-100.00,NNE,15,4.0,9.0,52,-99.99,,,-99.99,,2013-03-01 15:52:00,
2013-03-01 11:01:00,37.0,20.0,-100.00,NNW,330,6.0,13.0,50,-99.99,,,-99.99,,2013-03-01 16:01:00,
2013-03-01 11:11:00,38.0,21.0,-100.00,North,5,4.0,13.0,50,-99.99,,,-99.99,,2013-03-01 16:11:00,
2013-03-01 11:22:00,38.0,21.0,-100.00,North,5,4.0,13.0,50,-99.99,,,-99.99,,2013-03-01 16:22:00,
2013-03-01 11:32:00,38.0,20.0,-100.00,WNW,300,5.0,16.0,49,-99.99,,,-99.99,,2013-03-01 16:32:00,
2013-03-01 11:42:00,39.0,20.0,-100.00,NW,320,5.0,15.0,46,-99.99,,,-99.99,,2013-03-01 16:42:00,
2013-03-01 11:52:00,39.0,20.0,-100.00,North,0,6.0,13.0,46,-99.99,,,-99.99,,2013-03-01 16:52:00,
2013-03-01 12:01:00,39.0,20.0,-100.00,North,0,6.0,13.0,46,-99.99,,,-99.99,,2013-03-01 17:01:00,
2013-03-01 12:11:00,40.0,20.0,-100.00,North,0,6.0,13.0,45,-99.99,,,-99.99,,2013-03-01 17:11:00,
2013-03-01 12:21:00,40.0,20.0,-100.00,North,0,6.0,13.0,45,-99.99,,,-99.99,,2013-03-01 17:21:00,
2013-03-01 12:32:00,40.0,20.0,-100.00,North,0,4.0,14.0,45,-99.99,,,-99.99,,2013-03-01 17:32:00,
2013-03-01 12:42:00,40.0,20.0,-100.00,NNW,330,7.0,15.0,44,-99.99,,,-99.99,,2013-03-01 17:42:00,
2013-03-01 12:52:00,40.0,20.0,-100.00,NNW,330,7.0,15.0,44,-99.99,,,-99.99,,2013-03-01 17:52:00,
2013-03-01 13:02:00,40.0,20.0,-100.00,West,265,5.0,16.0,45,-99.99,,,-99.99,,2013-03-01 18:02:00,
2013-03-01 13:12:00,40.0,21.0,-100.00,NNW,330,5.0,13.0,46,-99.99,,,-99.99,,2013-03-01 18:12:00,
2013-03-01 13:22:00,40.0,21.0,-100.00,NNW,330,5.0,13.0,46,-99.99,,,-99.99,,2013-03-01 18:22:00,
2013-03-01 13:32:00,40.0,21.0,-100.00,WNW,300,6.0,17.0,46,-99.99,,,-99.99,,2013-03-01 18:32:00,
2013-03-01 13:42:00,40.0,20.0,-100.00,NNW,340,4.0,19.0,44,-99.99,,,-99.99,,2013-03-01 18:42:00,
2013-03-01 13:52:00,40.0,20.0,-100.00,NNW,340,4.0,19.0,44,-99.99,,,-99.99,,2013-03-01 18:52:00,
2013-03-01 14:02:00,40.0,20.0,-100.00,NW,315,6.0,13.0,45,-99.99,,,-99.99,,2013-03-01 19:02:00,
2013-03-01 14:11:00,39.0,20.0,-100.00,NW,310,6.0,14.0,46,-99.99,,,-99.99,,2013-03-01 19:11:00,
2013-03-01 14:21:00,39.0,20.0,-100.00,NW,310,6.0,14.0,46,-99.99,,,-99.99,,2013-03-01 19:21:00,
2013-03-01 14:32:00,38.0,21.0,-100.00,NW,310,8.0,15.0,50,-99.99,,,-99.99,,2013-03-01 19:32:00,
2013-03-01 14:42:00,38.0,21.0,-100.00,NNW,330,5.0,13.0,50,-99.99,,,-99.99,,2013-03-01 19:42:00,
2013-03-01 14:51:00,38.0,21.0,-100.00,NNW,330,5.0,13.0,50,-99.99,,,-99.99,,2013-03-01 19:51:00,
2013-03-01 15:01:00,38.0,21.0,-100.00,NW,320,3.0,11.0,50,-99.99,,,-99.99,,2013-03-01 20:01:00,
2013-03-01 15:11:00,38.0,21.0,-100.00,NNW,330,5.0,11.0,49,-99.99,,,-99.99,,2013-03-01 20:11:00,
2013-03-01 15:21:00,38.0,21.0,-100.00,NNW,330,5.0,11.0,49,-99.99,,,-99.99,,2013-03-01 20:21:00,
2013-03-01 15:32:00,38.0,21.0,-100.00,WNW,295,3.0,14.0,49,-99.99,,,-99.99,,2013-03-01 20:32:00,
2013-03-01 15:42:00,38.0,21.0,-100.00,NW,315,3.0,12.0,49,-99.99,,,-99.99,,2013-03-01 20:42:00,
2013-03-01 15:52:00,39.0,21.0,-100.00,NW,315,3.0,11.0,49,-99.99,,,-99.99,,2013-03-01 20:52:00,
2013-03-01 16:02:00,39.0,21.0,-100.00,NW,315,3.0,11.0,49,-99.99,,,-99.99,,2013-03-01 21:02:00,
2013-03-01 16:11:00,38.0,21.0,-100.00,WNW,300,3.0,9.0,50,-99.99,,,-99.99,,2013-03-01 21:11:00,
2013-03-01 16:21:00,38.0,21.0,-100.00,WNW,300,3.0,9.0,50,-99.99,,,-99.99,,2013-03-01 21:21:00,
2013-03-01 16:32:00,37.0,21.0,-100.00,North,0,3.0,15.0,52,-99.99,,,-99.99,,2013-03-01 21:32:00,
2013-03-01 16:42:00,37.0,22.0,-100.00,WNW,290,7.0,15.0,54,-99.99,,,-99.99,,2013-03-01 21:42:00,
2013-03-01 16:52:00,37.0,22.0,-100.00,WNW,290,7.0,15.0,54,-99.99,,,-99.99,,2013-03-01 21:52:00,
2013-03-01 17:01:00,37.0,22.0,-100.00,NW,325,6.0,13.0,54,-99.99,,,-99.99,,2013-03-01 22:01:00,
2013-03-01 17:12:00,37.0,22.0,-100.00,NW,325,6.0,13.0,54,-99.99,,,-99.99,,2013-03-01 22:12:00,
2013-03-01 17:32:00,36.0,23.0,-100.00,NNW,335,5.0,12.0,58,-99.99,,,-99.99,,2013-03-01 22:32:00,
2013-03-01 17:42:00,36.0,22.0,-100.00,NNW,330,6.0,13.0,58,-99.99,,,-99.99,,2013-03-01 22:42:00,
2013-03-01 17:51:00,35.0,23.0,-100.00,NNW,345,3.0,13.0,59,-99.99,,,-99.99,,2013-03-01 22:51:00,
2013-03-01 18:01:00,35.0,23.0,-100.00,NNW,345,3.0,13.0,59,-99.99,,,-99.99,,2013-03-01 23:01:00,
2013-03-01 18:11:00,35.0,23.0,-100.00,WNW,295,4.0,11.0,60,-99.99,,,-99.99,,2013-03-01 23:11:00,
2013-03-01 18:21:00,35.0,23.0,-100.00,WNW,295,4.0,11.0,60,-99.99,,,-99.99,,2013-03-01 23:21:00,
2013-03-01 18:32:00,35.0,23.0,-100.00,NW,325,4.0,14.0,60,-99.99,,,-99.99,,2013-03-01 23:32:00,
2013-03-01 18:42:00,35.0,22.0,-100.00,North,0,6.0,14.0,59,-99.99,,,-99.99,,2013-03-01 23:42:00,
2013-03-01 18:52:00,35.0,22.0,-100.00,North,0,6.0,14.0,59,-99.99,,,-99.99,,2013-03-01 23:52:00,
2013-03-01 19:02:00,35.0,22.0,-100.00,NNW,330,6.0,14.0,58,-99.99,,,-99.99,,2013-03-02 00:02:00,
2013-03-01 19:12:00,35.0,22.0,-100.00,NW,315,3.0,13.0,58,-99.99,,,-99.99,,2013-03-02 00:12:00,
2013-03-01 19:22:00,35.0,22.0,-100.00,NW,315,3.0,13.0,58,-99.99,,,-99.99,,2013-03-02 00:22:00,
2013-03-01 19:32:00,35.0,21.0,-100.00,North,0,4.0,15.0,58,-99.99,,,-99.99,,2013-03-02 00:32:00,
2013-03-01 19:42:00,35.0,21.0,-100.00,NNW,340,2.0,18.0,58,-99.99,,,-99.99,,2013-03-02 00:42:00,
2013-03-01 19:52:00,35.0,21.0,-100.00,NNW,340,2.0,18.0,58,-99.99,,,-99.99,,2013-03-02 00:52:00,
2013-03-01 20:01:00,34.0,21.0,-100.00,NW,315,4.0,14.0,58,-99.99,,,-99.99,,2013-03-02 01:01:00,
2013-03-01 20:11:00,34.0,21.0,-100.00,North,0,4.0,9.0,58,-99.99,,,-99.99,,2013-03-02 01:11:00,
2013-03-01 20:21:00,34.0,21.0,-100.00,North,0,4.0,9.0,58,-99.99,,,-99.99,,2013-03-02 01:21:00,
2013-03-01 20:32:00,34.0,21.0,-100.00,North,0,1.0,9.0,58,-99.99,,,-99.99,,2013-03-02 01:32:00,
2013-03-01 20:42:00,34.0,21.0,-100.00,WNW,295,4.0,9.0,59,-99.99,,,-99.99,,2013-03-02 01:42:00,
2013-03-01 20:52:00,34.0,21.0,-100.00,WNW,295,4.0,9.0,59,-99.99,,,-99.99,,2013-03-02 01:52:00,
2013-03-01 21:01:00,33.0,21.0,-100.00,NW,305,5.0,14.0,59,-99.99,,,-99.99,,2013-03-02 02:01:00,
2013-03-01 21:11:00,33.0,20.0,-100.00,NW,325,8.0,15.0,59,-99.99,,,-99.99,,2013-03-02 02:11:00,
2013-03-01 21:22:00,33.0,20.0,-100.00,NW,325,8.0,15.0,59,-99.99,,,-99.99,,2013-03-02 02:22:00,
2013-03-01 21:32:00,33.0,20.0,-100.00,NW,305,7.0,14.0,58,-99.99,,,-99.99,,2013-03-02 02:32:00,
2013-03-01 21:42:00,33.0,19.0,-100.00,NNW,335,5.0,13.0,58,-99.99,,,-99.99,,2013-03-02 02:42:00,
2013-03-01 21:52:00,33.0,19.0,-100.00,NNW,335,5.0,13.0,58,-99.99,,,-99.99,,2013-03-02 02:52:00,
2013-03-01 22:02:00,33.0,19.0,-100.00,NNW,335,3.0,9.0,58,-99.99,,,-99.99,,2013-03-02 03:02:00,
2013-03-01 22:11:00,32.0,20.0,-100.00,NW,320,5.0,14.0,59,-99.99,,,-99.99,,2013-03-02 03:11:00,
2013-03-01 22:22:00,32.0,20.0,-100.00,NW,320,5.0,14.0,59,-99.99,,,-99.99,,2013-03-02 03:22:00,
2013-03-01 22:32:00,32.0,19.0,-100.00,NE,55,3.0,12.0,59,-99.99,,,-99.99,,2013-03-02 03:32:00,
2013-03-01 22:42:00,32.0,19.0,-100.00,NW,320,5.0,14.0,59,-99.99,,,-99.99,,2013-03-02 03:42:00,
2013-03-01 22:52:00,32.0,19.0,-100.00,NW,320,5.0,14.0,59,-99.99,,,-99.99,,2013-03-02 03:52:00,
2013-03-01 23:02:00,32.0,19.0,-100.00,NNW,330,3.0,13.0,59,-99.99,,,-99.99,,2013-03-02 04:02:00,
2013-03-01 23:12:00,31.0,19.0,-100.00,North,0,1.0,11.0,60,-99.99,,,-99.99,,2013-03-02 04:12:00,
2013-03-01 23:22:00,31.0,19.0,-100.00,North,0,1.0,11.0,60,-99.99,,,-99.99,,2013-03-02 04:22:00,
2013-03-01 23:32:00,31.0,19.0,-100.00,NNW,335,1.0,10.0,60,-99.99,,,-99.99,,2013-03-02 04:32:00,
2013-03-01 23:42:00,31.0,20.0,-100.00,NW,320,5.0,11.0,61,-99.99,,,-99.99,,2013-03-02 04:42:00,
2013-03-01 23:52:00,31.0,19.0,-100.00,North,5,3.0,10.0,60,-99.99,,,-99.99,,2013-03-02 04:52:00,